Location: Ku?niki
(51.4449°N, 17.8974°E)
Time: 21:53:29
(UTC+00:00)

POLYITAN 1 - Pass Details

Date: 03 July 2022
Orbit: 586 x 605 km, 98.0° (Epoch: 13 August)

Event Time Altitude Azimuth Distance (km) Brightness Sun altitude
Rises 23:59:31 0° 22° (NNE) 2,862 ? -14.1°
Reaches altitude 10° 00:01:55 10° 33° (NNE) 1,957 ? -14.0°
Maximum altitude 00:05:41 30° 95° (E) 1,087 ? -13.9°
Enters shadow 00:08:57 13° 154° (SSE) 1,777 ? -13.7°
